STARLINK-3334, 50823

Orbit data source: Space-Track

STARLINK-3334, 50823 is a payload satellite owned by SpaceX/Seattle (US) in LEO that was launched on Thu, 06 Jan 2022 UTC via an FALCON 9 launch vehicle from the Air Force Eastern Test Range (AFETR). Payload-class satellites include a variety of spacecraft equipped with specific instruments for various scientific and technological missions. These include communications satellites like Starlink; space stations such as the ISS; scientific satellites like the Hubble; Earth observation satellites from companies like Planet Labs, Umbra, and HawkEye 360; GPS; miniature CubeSats for education and research; and military/defense satellites.

Loading next visibility...
Identifier
50823, 2022-001W
Orbit
LEO
Country
Flag of USUS
Related business
Manufacturer
SpaceX/Seattle
Mission
Operational Commercial Communications
Bus & Motor
STARLINK, Unknown motor
Mass
297 kg wet, ~275 kg dry
Launch date (UTC)
2022-01-06 (4 years ago)
Launch vehicle
FALCON 9
Launch site
Air Force Eastern Test Range (AFETR)
Object type
Payload
Rocket body
Debris
Shape & HBR
Box + 1 Pan, 10.1 m
Radar Cross Section
13.562 m², Large (>1 m²)

Expand to show TLE details & history
Last TLE update: 2 days ago

TLE from 2 days ago
0 STARLINK-3334
1 50823U 22001W   26171.44843578 -.00000577  00000-0 -18142-4 0  9994
2 50823  53.1611  67.7055 0001380  89.0636 271.0513 15.08838644245929
Epoch: 2026-06-20T10:45Z
TLE epoch observation values (Epoch: 2026-06-20T10:45:44.851Z)
Latitude
-0.00006°
Longitude
-2.39434°
Altitude
540.622 km
Speed
7.593 km/s
True Right ascension
04h 30m 49s
True Declination
0° 00' 00"
Sunlit
Object was in daylight at epoch
Visualization orbit readout
Latitude
Unknown
Longitude
Unknown
Altitude
Unknown
Speed
Unknown
Apparent Right ascension
Unknown
Apparent Declination
Unknown
Sunlit
N/A
Visualization observer readout
Local Sidereal Time
21:24:14
Azimuth
Unknown
Elevation
Unknown
Doppler factor
Unknown
Orbital elements
Apogee altitude
540.956 km
Perigee altitude
539.047 km
Semi-major axis
6,918.138 km
Eccentricity
0.00014
Inclination
53.1611°
RAAN
67.7055°
Arg. of periapsis
89.0636°
True anomaly
271.03549°
Mean anomaly
271.0513°
Eccentric anomaly
271.04339°
Mean motion
3.77189 °/min
Orbital period
95.44 mins
BSTAR
-0.000018142
Loading maneuver chart data...
Computing Atmospheric mass density...
Loading historical data...
Loading historical data...
Loading historical data...
Loading historical data...
Loading historical data...
Loading historical data...
Loading historical data...

Documentation

Showing up to 5 results
|